Tracking 32412 objects as of 6-Dec-2025
HD Live streaming from Space Station
objects crossing your sky now

ATLAS 5 CENTAUR DEB

Track ATLAS 5 CENTAUR DEB now!


NORAD ID: 49359
Int'l Code: 2018-079FL
Perigee: 8,372.6 km
Apogee: 34,543.5 km
Inclination: 13.1 °
Period: 770.0 minutes
Semi major axis: 27829 km
RCS: Unknown
Launch date: October 17, 2018
Source: United States (US)
Launch site: AIR FORCE EASTERN TEST RANGE (AFETR)

Note: This is SATELLITE DEBRIS
Your satellite tracking list
Your tracking list is empty




NASA's NSSDC Master Catalog

Two Line Element Set (TLE):
1 49359U 18079FL  25333.70680345 -.00000033  00000-0  00000-0 0  9991
2 49359  13.1028  40.3932 4702082 309.9938  17.3950  1.87005640 29054
Source of the keplerian elements: AFSPC